DLH185 LMML-LFSB

Flight info

Callsign DLH185
Flight time 1h 58m
Altitude 32000
Route GZO M622 SOPIR DCT PIVOP DCT GIANO DCT BETOT DCT POKAV DCT PODOX DCT SPEZI DCT PUNSA DCT LUMEL
Aircraft A346/H-SDE2E3FGHIJ3J4J5M1RWXY/LB1D1

Departure

Time 2026-05-06 14:41
Airport Malta International Airport (LMML)

Arrival

Time 2026-05-06 16:40
Airport EuroAirport Basel–Mulhouse–Freiburg (LFSB)
Time Latitude Longitude Altitude Speed Heading
2026-05-06 14:14 35.84874 14.49232 266 ft 0 kts 224°
2026-05-06 14:38 35.84873 14.49231 267 ft 1 kts 226°
2026-05-06 14:38 35.84863 14.49178 267 ft 12 kts 285°
2026-05-06 14:38 35.84939 14.49039 267 ft 27 kts 304°
2026-05-06 14:38 35.85009 14.48787 269 ft 35 kts 287°
2026-05-06 14:39 35.85145 14.48502 280 ft 42 kts 311°
2026-05-06 14:39 35.85375 14.48204 280 ft 53 kts 315°
2026-05-06 14:39 35.85635 14.48016 280 ft 10 kts 313°
2026-05-06 14:39 35.85644 14.48001 280 ft 5 kts 305°
2026-05-06 14:40 35.85648 14.47944 280 ft 9 kts 222°
2026-05-06 14:40 35.85576 14.47960 280 ft 15 kts 140°
2026-05-06 14:40 35.85441 14.48129 280 ft 55 kts 135°
2026-05-06 14:40 35.85019 14.48653 273 ft 117 kts 135°
2026-05-06 14:41 35.84302 14.49538 271 ft 168 kts 133°
2026-05-06 14:41 35.83397 14.50626 643 ft 188 kts 135°
2026-05-06 14:41 35.82273 14.51453 1403 ft 190 kts 161°
2026-05-06 14:41 35.80956 14.51609 2038 ft 201 kts 186°
2026-05-06 14:42 35.79613 14.50876 2443 ft 227 kts 219°
2026-05-06 14:42 35.78782 14.49102 2977 ft 252 kts 245°
2026-05-06 14:42 35.78178 14.47035 3564 ft 264 kts 244°
2026-05-06 14:42 35.77434 14.44932 4324 ft 268 kts 240°
2026-05-06 14:43 35.76661 14.42812 5199 ft 274 kts 251°
2026-05-06 14:43 35.76600 14.40446 6054 ft 286 kts 279°
2026-05-06 14:43 35.77333 14.38129 6972 ft 289 kts 291°
2026-05-06 14:43 35.78190 14.35868 7829 ft 292 kts 291°
2026-05-06 14:44 35.79075 14.33551 8683 ft 297 kts 295°
2026-05-06 14:44 35.80383 14.31589 9525 ft 307 kts 320°
2026-05-06 14:44 35.82278 14.30354 10428 ft 310 kts 337°
2026-05-06 14:45 35.86569 14.28555 11521 ft 342 kts 338°
2026-05-06 14:45 35.88879 14.27553 11964 ft 360 kts 337°
2026-05-06 14:45 35.91265 14.26469 12387 ft 379 kts 336°
2026-05-06 14:45 35.93785 14.25293 12832 ft 395 kts 335°
2026-05-06 14:46 35.96371 14.24056 13637 ft 400 kts 336°
2026-05-06 14:46 35.98997 14.22800 14512 ft 402 kts 336°
2026-05-06 14:46 36.01596 14.21505 15312 ft 404 kts 332°
2026-05-06 14:46 36.04099 14.19960 16013 ft 408 kts 327°
2026-05-06 14:47 36.06531 14.18093 16697 ft 412 kts 323°
2026-05-06 14:47 36.08893 14.16040 17461 ft 416 kts 321°
2026-05-06 14:47 36.11255 14.13936 18230 ft 420 kts 321°
2026-05-06 14:47 36.13649 14.11800 18874 ft 424 kts 321°
2026-05-06 14:48 36.16023 14.09683 19567 ft 427 kts 321°
2026-05-06 14:48 36.18450 14.07523 20271 ft 429 kts 321°
2026-05-06 14:48 36.20897 14.05348 20991 ft 431 kts 321°
2026-05-06 14:48 36.23318 14.03195 21666 ft 434 kts 321°
2026-05-06 14:49 36.25792 14.00995 22349 ft 437 kts 321°
2026-05-06 14:49 36.28277 13.98783 23013 ft 440 kts 321°
2026-05-06 14:49 36.30759 13.96573 23636 ft 443 kts 321°
2026-05-06 14:49 36.33316 13.94296 24194 ft 446 kts 321°
2026-05-06 14:50 36.35853 13.92034 24740 ft 449 kts 321°
2026-05-06 14:50 36.38366 13.89791 25253 ft 451 kts 321°
2026-05-06 14:50 36.40940 13.87491 25794 ft 454 kts 321°
2026-05-06 14:50 36.43524 13.85180 26347 ft 457 kts 320°
2026-05-06 14:51 36.46090 13.82893 26843 ft 461 kts 321°
2026-05-06 14:51 36.48775 13.80667 27326 ft 466 kts 323°
2026-05-06 14:51 36.51587 13.78581 27821 ft 471 kts 326°
2026-05-06 14:51 36.54506 13.76663 28370 ft 474 kts 329°
2026-05-06 14:52 36.57464 13.74853 29146 ft 471 kts 329°
2026-05-06 14:52 36.60412 13.73076 29940 ft 468 kts 329°
2026-05-06 14:52 36.63340 13.71313 30590 ft 466 kts 329°
2026-05-06 14:52 36.66213 13.69578 31188 ft 464 kts 328°
2026-05-06 14:53 36.69116 13.67820 31787 ft 463 kts 328°
2026-05-06 14:53 36.72018 13.66059 32319 ft 463 kts 328°
2026-05-06 14:53 36.74939 13.64280 32490 ft 472 kts 328°
2026-05-06 14:53 36.77923 13.62461 32666 ft 479 kts 328°
2026-05-06 14:54 36.80945 13.60620 32848 ft 485 kts 328°
2026-05-06 14:54 36.83992 13.58766 33190 ft 487 kts 328°
2026-05-06 14:54 36.87046 13.56910 33647 ft 486 kts 328°
2026-05-06 14:54 36.90109 13.55047 34119 ft 484 kts 328°
2026-05-06 14:55 36.93133 13.53203 34559 ft 482 kts 328°
2026-05-06 14:55 36.96106 13.51388 34924 ft 480 kts 328°
2026-05-06 14:55 36.99102 13.49557 34972 ft 479 kts 328°
2026-05-06 14:56 37.05128 13.45861 34972 ft 483 kts 328°
2026-05-06 14:56 37.11176 13.42149 34975 ft 483 kts 328°
2026-05-06 14:57 37.17194 13.38453 34978 ft 483 kts 328°
2026-05-06 14:57 37.23229 13.34742 34980 ft 482 kts 328°
2026-05-06 14:58 37.29263 13.31020 34972 ft 482 kts 328°
2026-05-06 14:58 37.35297 13.27291 34976 ft 482 kts 328°
2026-05-06 14:59 37.41291 13.23580 34973 ft 482 kts 328°
2026-05-06 14:59 37.47347 13.19827 34978 ft 481 kts 328°
2026-05-06 15:00 37.53486 13.16420 34976 ft 482 kts 331°
2026-05-06 15:00 37.59658 13.13174 34988 ft 483 kts 331°
2026-05-06 15:01 37.65899 13.09884 34982 ft 488 kts 331°
2026-05-06 15:01 37.72182 13.06566 34978 ft 488 kts 331°
2026-05-06 15:02 37.78429 13.03258 34976 ft 488 kts 331°
2026-05-06 15:02 37.84723 12.99918 34975 ft 488 kts 331°
2026-05-06 15:03 37.90968 12.96596 34978 ft 488 kts 331°
2026-05-06 15:03 37.97231 12.93261 34988 ft 488 kts 331°
2026-05-06 15:04 38.03493 12.89917 34982 ft 488 kts 331°
2026-05-06 15:04 38.09772 12.86556 34980 ft 488 kts 331°
2026-05-06 15:05 38.16039 12.83197 34979 ft 488 kts 331°
2026-05-06 15:05 38.22270 12.79854 34985 ft 487 kts 330°
2026-05-06 15:06 38.28523 12.76490 34966 ft 487 kts 330°
2026-05-06 15:06 38.34765 12.73120 34979 ft 491 kts 330°
2026-05-06 15:07 38.41079 12.69711 34963 ft 491 kts 330°
2026-05-06 15:07 38.47335 12.66333 34980 ft 489 kts 330°
2026-05-06 15:08 38.53611 12.62930 34972 ft 489 kts 330°
2026-05-06 15:08 38.58837 12.60090 34970 ft 489 kts 330°
2026-05-06 15:09 38.65116 12.56674 34971 ft 489 kts 330°
2026-05-06 15:09 38.71339 12.53279 34980 ft 488 kts 330°
2026-05-06 15:10 38.78617 12.49306 34978 ft 488 kts 330°
2026-05-06 15:10 38.83823 12.46456 34974 ft 488 kts 330°
2026-05-06 15:11 38.90097 12.43061 34970 ft 489 kts 331°
2026-05-06 15:11 38.96402 12.39753 34989 ft 490 kts 331°
2026-05-06 15:12 39.02691 12.36449 34971 ft 492 kts 331°
2026-05-06 15:12 39.09036 12.33103 34971 ft 492 kts 331°
2026-05-06 15:13 39.15397 12.29739 34992 ft 492 kts 331°
2026-05-06 15:13 39.21711 12.26392 34980 ft 493 kts 331°
2026-05-06 15:14 39.28072 12.23010 34968 ft 493 kts 331°
2026-05-06 15:14 39.34460 12.19608 34982 ft 493 kts 331°
2026-05-06 15:15 39.40794 12.16229 34989 ft 494 kts 331°
2026-05-06 15:15 39.47185 12.12812 34979 ft 496 kts 331°
2026-05-06 15:16 39.53580 12.09385 34976 ft 497 kts 331°
2026-05-06 15:16 39.59946 12.05967 34982 ft 497 kts 331°
2026-05-06 15:17 39.66343 12.02531 34998 ft 498 kts 330°
2026-05-06 15:17 39.72764 11.99068 34985 ft 499 kts 330°
2026-05-06 15:18 39.79158 11.95614 34982 ft 499 kts 330°
2026-05-06 15:18 39.85592 11.92132 34981 ft 500 kts 330°
2026-05-06 15:19 39.92017 11.88652 34983 ft 499 kts 330°
2026-05-06 15:19 39.98431 11.85165 34979 ft 499 kts 330°
2026-05-06 15:20 40.04787 11.81702 34976 ft 499 kts 330°
2026-05-06 15:20 40.11196 11.78205 34978 ft 499 kts 330°
2026-05-06 15:21 40.17629 11.74688 34970 ft 499 kts 330°
2026-05-06 15:21 40.24002 11.71196 34971 ft 499 kts 330°
2026-05-06 15:22 40.30411 11.67677 34975 ft 499 kts 330°
2026-05-06 15:22 40.36803 11.64164 34980 ft 501 kts 329°
2026-05-06 15:23 40.43294 11.60724 34972 ft 503 kts 331°
2026-05-06 15:23 40.49858 11.57422 34965 ft 503 kts 331°
2026-05-06 15:24 40.56368 11.54128 34984 ft 503 kts 331°
2026-05-06 15:24 40.62934 11.50781 34968 ft 504 kts 331°
2026-05-06 15:25 40.69432 11.47454 34962 ft 504 kts 331°
2026-05-06 15:25 40.75983 11.44094 34950 ft 504 kts 331°
2026-05-06 15:26 40.82531 11.40725 34963 ft 504 kts 331°
2026-05-06 15:26 40.88999 11.37243 34956 ft 503 kts 329°
2026-05-06 15:27 40.95436 11.33607 34952 ft 503 kts 329°
2026-05-06 15:27 41.01912 11.29948 35052 ft 506 kts 329°
2026-05-06 15:27 41.05153 11.28119 35374 ft 506 kts 329°
2026-05-06 15:28 41.08345 11.26320 35813 ft 504 kts 329°
2026-05-06 15:28 41.11566 11.24505 36262 ft 500 kts 329°
2026-05-06 15:28 41.14762 11.22702 36701 ft 498 kts 329°
2026-05-06 15:28 41.17946 11.20904 37099 ft 495 kts 329°
2026-05-06 15:29 41.21109 11.19114 37512 ft 493 kts 329°
2026-05-06 15:29 41.24265 11.17327 37901 ft 491 kts 329°
2026-05-06 15:29 41.27407 11.15544 38252 ft 489 kts 329°
2026-05-06 15:29 41.30531 11.13770 38575 ft 488 kts 330°
2026-05-06 15:30 41.33648 11.12001 38832 ft 486 kts 330°
2026-05-06 15:30 41.36764 11.10230 39039 ft 486 kts 330°
2026-05-06 15:30 41.39872 11.08460 39223 ft 486 kts 330°
2026-05-06 15:30 41.42976 11.06692 39391 ft 486 kts 330°
2026-05-06 15:31 41.46038 11.04945 39571 ft 486 kts 330°
2026-05-06 15:31 41.49148 11.03168 39741 ft 486 kts 330°
2026-05-06 15:31 41.52272 11.01383 39894 ft 486 kts 330°
2026-05-06 15:32 41.61603 10.96043 39934 ft 486 kts 330°
2026-05-06 15:32 41.67824 10.92473 39951 ft 486 kts 330°
2026-05-06 15:33 41.74039 10.88897 39940 ft 486 kts 330°
2026-05-06 15:33 41.80250 10.85318 39932 ft 486 kts 330°
2026-05-06 15:34 41.86457 10.81733 39926 ft 486 kts 330°
2026-05-06 15:34 41.92669 10.78138 39932 ft 486 kts 330°
2026-05-06 15:35 41.98877 10.74537 39926 ft 486 kts 330°
2026-05-06 15:35 42.05085 10.70928 39920 ft 486 kts 330°
2026-05-06 15:36 42.11296 10.67310 39923 ft 486 kts 330°
2026-05-06 15:36 42.17508 10.63682 39923 ft 486 kts 330°
2026-05-06 15:37 42.23718 10.60049 39922 ft 486 kts 330°
2026-05-06 15:37 42.29868 10.56396 39924 ft 486 kts 328°
2026-05-06 15:38 42.36002 10.52469 39917 ft 486 kts 328°
2026-05-06 15:38 42.42096 10.48534 39917 ft 486 kts 328°
2026-05-06 15:39 42.48224 10.44587 39914 ft 486 kts 328°
2026-05-06 15:39 42.54312 10.40667 39910 ft 486 kts 328°
2026-05-06 15:40 42.60437 10.36718 39916 ft 487 kts 328°
2026-05-06 15:40 42.66573 10.32755 39915 ft 487 kts 328°
2026-05-06 15:41 42.72660 10.28814 39905 ft 487 kts 328°
2026-05-06 15:41 42.78790 10.24837 39913 ft 487 kts 328°
2026-05-06 15:42 42.84891 10.20869 39915 ft 488 kts 328°
2026-05-06 15:42 42.91040 10.16863 39917 ft 489 kts 328°
2026-05-06 15:43 42.97185 10.12850 39919 ft 489 kts 328°
2026-05-06 15:43 43.03297 10.08849 39922 ft 489 kts 328°
2026-05-06 15:44 43.09448 10.04813 39915 ft 489 kts 328°
2026-05-06 15:44 43.15558 10.00797 39914 ft 489 kts 328°
2026-05-06 15:45 43.21703 9.96747 39924 ft 490 kts 328°
2026-05-06 15:45 43.27863 9.92678 39914 ft 490 kts 328°
2026-05-06 15:46 43.33976 9.88632 39909 ft 490 kts 328°
2026-05-06 15:46 43.40130 9.84551 39907 ft 490 kts 328°
2026-05-06 15:47 43.46288 9.80453 39909 ft 491 kts 328°
2026-05-06 15:47 43.52420 9.76367 39901 ft 492 kts 328°
2026-05-06 15:48 43.58593 9.72245 39901 ft 492 kts 328°
2026-05-06 15:48 43.63723 9.68808 39910 ft 492 kts 328°
2026-05-06 15:49 43.70887 9.64001 39896 ft 492 kts 328°
2026-05-06 15:49 43.77057 9.59852 39893 ft 492 kts 328°
2026-05-06 15:50 43.83248 9.55774 39896 ft 492 kts 329°
2026-05-06 15:50 43.89410 9.51759 39888 ft 492 kts 329°
2026-05-06 15:51 43.95618 9.47702 39887 ft 492 kts 329°
2026-05-06 15:51 44.01818 9.43632 39898 ft 493 kts 329°
2026-05-06 15:52 44.08029 9.39542 39889 ft 493 kts 329°
2026-05-06 15:52 44.14195 9.35475 39881 ft 493 kts 329°
2026-05-06 15:53 44.20408 9.31366 39880 ft 493 kts 329°
2026-05-06 15:53 44.26580 9.27274 39881 ft 494 kts 329°
2026-05-06 15:54 44.32808 9.23135 39861 ft 494 kts 329°
2026-05-06 15:54 44.37987 9.19685 39866 ft 495 kts 328°
2026-05-06 15:55 44.45213 9.14860 39860 ft 495 kts 328°
2026-05-06 15:55 44.50378 9.11404 39854 ft 495 kts 328°
2026-05-06 15:56 44.57614 9.06547 39863 ft 495 kts 329°
2026-05-06 15:56 44.62823 9.03048 39854 ft 495 kts 329°
2026-05-06 15:57 44.69014 8.98875 39840 ft 496 kts 329°
2026-05-06 15:57 44.75261 8.94657 39822 ft 497 kts 329°
2026-05-06 15:58 44.81509 8.90427 39813 ft 497 kts 329°
2026-05-06 15:58 44.87704 8.86224 39820 ft 497 kts 328°
2026-05-06 15:59 44.93954 8.81971 39818 ft 498 kts 328°
2026-05-06 15:59 45.00190 8.77715 39807 ft 498 kts 328°
2026-05-06 16:00 45.06438 8.73444 39795 ft 498 kts 328°
2026-05-06 16:00 45.12654 8.69184 39800 ft 499 kts 328°
2026-05-06 16:01 45.18918 8.64880 39886 ft 499 kts 328°
2026-05-06 16:01 45.25179 8.60567 39901 ft 499 kts 328°
2026-05-06 16:02 45.31445 8.56238 39907 ft 500 kts 329°
2026-05-06 16:02 45.37687 8.51920 39924 ft 500 kts 328°
2026-05-06 16:03 45.43947 8.47578 39894 ft 500 kts 328°
2026-05-06 16:03 45.50205 8.43222 39848 ft 499 kts 329°
2026-05-06 16:04 45.56406 8.38898 39851 ft 498 kts 329°
2026-05-06 16:04 45.62646 8.34537 39850 ft 498 kts 328°
2026-05-06 16:05 45.68875 8.30170 39865 ft 498 kts 329°
2026-05-06 16:05 45.75094 8.25801 39877 ft 497 kts 329°
2026-05-06 16:06 45.81268 8.21454 39851 ft 498 kts 329°
2026-05-06 16:06 45.87496 8.17070 39856 ft 498 kts 329°
2026-05-06 16:07 45.93734 8.12656 39886 ft 498 kts 329°
2026-05-06 16:07 45.99954 8.08241 39886 ft 498 kts 329°
2026-05-06 16:08 46.06136 8.03836 39891 ft 499 kts 329°
2026-05-06 16:08 46.12459 7.99636 39889 ft 500 kts 332°
2026-05-06 16:09 46.18833 7.95575 39919 ft 500 kts 332°
2026-05-06 16:09 46.25171 7.91527 39879 ft 487 kts 332°
2026-05-06 16:10 46.28209 7.89580 39533 ft 482 kts 332°
2026-05-06 16:10 46.31294 7.87593 38791 ft 487 kts 332°
2026-05-06 16:10 46.34416 7.85574 37805 ft 494 kts 331°
2026-05-06 16:10 46.37572 7.83535 36900 ft 498 kts 331°
2026-05-06 16:11 46.40752 7.81483 35808 ft 500 kts 331°
2026-05-06 16:11 46.43926 7.79435 34874 ft 495 kts 330°
2026-05-06 16:11 46.47010 7.77445 34314 ft 486 kts 330°
2026-05-06 16:11 46.50088 7.75451 33651 ft 482 kts 330°
2026-05-06 16:12 46.53177 7.73438 32738 ft 489 kts 330°
2026-05-06 16:12 46.56288 7.71409 31842 ft 492 kts 330°
2026-05-06 16:12 46.59428 7.69357 30962 ft 496 kts 330°
2026-05-06 16:12 46.62595 7.67290 30138 ft 500 kts 330°
2026-05-06 16:13 46.65781 7.65206 29169 ft 504 kts 330°
2026-05-06 16:13 46.68986 7.63100 28173 ft 506 kts 331°
2026-05-06 16:13 46.72200 7.60985 27222 ft 506 kts 332°
2026-05-06 16:13 46.75410 7.58871 26363 ft 504 kts 332°
2026-05-06 16:14 46.78591 7.56780 25695 ft 499 kts 333°
2026-05-06 16:14 46.81702 7.54737 25039 ft 493 kts 333°
2026-05-06 16:14 46.82756 7.54043 24825 ft 491 kts 333°
2026-05-06 16:14 46.84809 7.52693 24397 ft 487 kts 333°
2026-05-06 16:15 46.90924 7.48659 23007 ft 475 kts 334°
2026-05-06 16:15 46.93900 7.46699 22010 ft 461 kts 334°
2026-05-06 16:15 46.95814 7.45438 21412 ft 450 kts 334°
2026-05-06 16:15 46.99566 7.42961 20360 ft 436 kts 334°
2026-05-06 16:16 47.02305 7.41144 19600 ft 430 kts 333°
2026-05-06 16:16 47.04983 7.39365 18875 ft 425 kts 333°
2026-05-06 16:16 47.07663 7.37584 18160 ft 420 kts 333°
2026-05-06 16:16 47.10319 7.35813 17374 ft 416 kts 333°
2026-05-06 16:17 47.12953 7.34055 16675 ft 416 kts 333°
2026-05-06 16:17 47.15593 7.32292 15798 ft 415 kts 333°
2026-05-06 16:17 47.18197 7.30556 14885 ft 403 kts 333°
2026-05-06 16:17 47.20705 7.28880 14270 ft 397 kts 332°
2026-05-06 16:18 47.23210 7.27194 13659 ft 393 kts 333°
2026-05-06 16:18 47.25685 7.25533 12977 ft 388 kts 333°
2026-05-06 16:18 47.28131 7.23886 12318 ft 382 kts 332°
2026-05-06 16:18 47.30512 7.22292 11653 ft 366 kts 332°
2026-05-06 16:19 47.32767 7.20779 11018 ft 351 kts 332°
2026-05-06 16:19 47.34947 7.19313 10394 ft 338 kts 332°
2026-05-06 16:19 47.37042 7.17904 9992 ft 319 kts 332°
2026-05-06 16:19 47.38955 7.16492 9878 ft 292 kts 324°
2026-05-06 16:20 47.40496 7.14629 9876 ft 283 kts 310°
2026-05-06 16:20 47.41640 7.12378 9869 ft 263 kts 296°
2026-05-06 16:20 47.42408 7.10065 9887 ft 248 kts 291°
2026-05-06 16:20 47.43099 7.07747 9899 ft 244 kts 291°
2026-05-06 16:21 47.43777 7.05454 9885 ft 243 kts 291°
2026-05-06 16:21 47.44462 7.03159 9884 ft 244 kts 292°
2026-05-06 16:21 47.45158 7.00854 9877 ft 245 kts 292°
2026-05-06 16:21 47.45847 6.98578 9871 ft 246 kts 292°
2026-05-06 16:22 47.46557 6.96239 9873 ft 244 kts 292°
2026-05-06 16:22 47.47330 6.94068 9870 ft 241 kts 306°
2026-05-06 16:22 47.48570 6.92336 9814 ft 244 kts 325°
2026-05-06 16:22 47.50105 6.91319 9698 ft 246 kts 339°
2026-05-06 16:23 47.51745 6.90568 9562 ft 246 kts 340°
2026-05-06 16:23 47.53402 6.89917 9426 ft 246 kts 343°
2026-05-06 16:23 47.55096 6.89359 9303 ft 252 kts 346°
2026-05-06 16:23 47.56826 6.88896 9164 ft 252 kts 348°
2026-05-06 16:24 47.58544 6.88549 9034 ft 252 kts 351°
2026-05-06 16:24 47.60295 6.88304 8902 ft 252 kts 352°
2026-05-06 16:24 47.62047 6.88209 8768 ft 253 kts
2026-05-06 16:24 47.63756 6.88848 8623 ft 256 kts 26°
2026-05-06 16:25 47.65128 6.90548 8518 ft 262 kts 53°
2026-05-06 16:25 47.65840 6.92999 8407 ft 264 kts 82°
2026-05-06 16:25 47.65850 6.95725 8344 ft 263 kts 95°
2026-05-06 16:25 47.65700 6.98424 8276 ft 263 kts 96°
2026-05-06 16:26 47.65542 7.01128 8169 ft 264 kts 95°
2026-05-06 16:26 47.65397 7.03852 8062 ft 263 kts 95°
2026-05-06 16:26 47.65264 7.06555 7994 ft 262 kts 95°
2026-05-06 16:26 47.65140 7.09263 7957 ft 263 kts 95°
2026-05-06 16:27 47.64985 7.11961 7857 ft 263 kts 102°
2026-05-06 16:27 47.64280 7.14419 7744 ft 258 kts 132°
2026-05-06 16:27 47.62907 7.15995 7634 ft 247 kts 159°
2026-05-06 16:27 47.61342 7.16915 7550 ft 244 kts 165°
2026-05-06 16:28 47.59729 7.17716 7450 ft 243 kts 166°
2026-05-06 16:28 47.58116 7.18471 7352 ft 243 kts 166°
2026-05-06 16:28 47.56497 7.19204 7235 ft 244 kts 166°
2026-05-06 16:28 47.54869 7.19959 7137 ft 244 kts 166°
2026-05-06 16:29 47.53250 7.20708 7042 ft 244 kts 166°
2026-05-06 16:29 47.51646 7.21443 6998 ft 244 kts 166°
2026-05-06 16:29 47.50027 7.22183 6997 ft 243 kts 166°
2026-05-06 16:29 47.48405 7.22934 6992 ft 244 kts 165°
2026-05-06 16:30 47.46924 7.24178 6964 ft 250 kts 136°
2026-05-06 16:30 47.46203 7.25522 7001 ft 254 kts 126°
2026-05-06 16:30 47.44988 7.28546 7003 ft 254 kts 122°
2026-05-06 16:30 47.44140 7.30808 7004 ft 253 kts 121°
2026-05-06 16:31 47.43289 7.33093 7006 ft 253 kts 121°
2026-05-06 16:31 47.42431 7.35378 7003 ft 254 kts 121°
2026-05-06 16:31 47.41579 7.37664 7005 ft 255 kts 121°
2026-05-06 16:31 47.40726 7.39961 6866 ft 254 kts 121°
2026-05-06 16:32 47.39878 7.42242 6702 ft 253 kts 121°
2026-05-06 16:32 47.39026 7.44515 6538 ft 252 kts 121°
2026-05-06 16:32 47.38175 7.46785 6362 ft 252 kts 121°
2026-05-06 16:32 47.37323 7.49055 6183 ft 252 kts 121°
2026-05-06 16:33 47.36485 7.51339 5965 ft 251 kts 122°
2026-05-06 16:33 47.35866 7.53750 5762 ft 254 kts 101°
2026-05-06 16:33 47.35729 7.56361 5713 ft 256 kts 94°
2026-05-06 16:34 47.35886 7.61390 5674 ft 236 kts 78°
2026-05-06 16:34 47.36302 7.63703 5679 ft 236 kts 74°
2026-05-06 16:34 47.37066 7.65819 5676 ft 234 kts 41°
2026-05-06 16:34 47.38440 7.66980 5699 ft 227 kts
2026-05-06 16:35 47.39975 7.66827 5720 ft 218 kts 330°
2026-05-06 16:35 47.41272 7.65723 5544 ft 215 kts 321°
2026-05-06 16:35 47.42537 7.64533 5254 ft 216 kts 324°
2026-05-06 16:35 47.43863 7.63484 4950 ft 215 kts 329°
2026-05-06 16:36 47.45202 7.62542 4571 ft 215 kts 330°
2026-05-06 16:36 47.46552 7.61616 4169 ft 211 kts 330°
2026-05-06 16:36 47.47858 7.60715 3849 ft 202 kts 329°
2026-05-06 16:36 47.49108 7.59841 3539 ft 195 kts 329°
2026-05-06 16:37 47.50304 7.59000 3260 ft 185 kts 329°
2026-05-06 16:37 47.51442 7.58204 2971 ft 175 kts 328°
2026-05-06 16:37 47.52506 7.57456 2693 ft 163 kts 330°
2026-05-06 16:37 47.53511 7.56752 2425 ft 155 kts 333°
2026-05-06 16:38 47.54463 7.56087 2159 ft 150 kts 334°
2026-05-06 16:38 47.55410 7.55423 1950 ft 152 kts 336°
2026-05-06 16:38 47.56359 7.54762 1717 ft 152 kts 336°
2026-05-06 16:38 47.57313 7.54100 1475 ft 151 kts 333°
2026-05-06 16:39 47.58273 7.53422 1251 ft 152 kts 334°
2026-05-06 16:39 47.59232 7.52745 985 ft 151 kts 335°
2026-05-06 16:39 47.60159 7.52101 898 ft 137 kts 335°
2026-05-06 16:39 47.60908 7.51587 888 ft 90 kts 335°
2026-05-06 16:40 47.61377 7.51259 878 ft 57 kts 334°
2026-05-06 16:40 47.61661 7.51061 885 ft 34 kts 335°
2026-05-06 16:40 47.61772 7.51060 885 ft 14 kts 54°
2026-05-06 16:40 47.61797 7.51211 882 ft 17 kts 104°
2026-05-06 16:41 47.61703 7.51331 880 ft 21 kts 155°
2026-05-06 16:41 47.61556 7.51434 874 ft 25 kts 155°
2026-05-06 16:41 47.61390 7.51550 875 ft 27 kts 155°
2026-05-06 16:41 47.61221 7.51668 879 ft 27 kts 155°
2026-05-06 16:42 47.61151 7.51716 881 ft 4 kts 155°
2026-05-06 16:42 47.61127 7.51722 881 ft 4 kts 187°
2026-05-06 16:42 47.61123 7.51721 881 ft 0 kts 197°
2026-05-06 16:42 47.61117 7.51718 882 ft 3 kts 197°
2026-05-06 16:43 47.61093 7.51741 882 ft 12 kts 141°
2026-05-06 16:43 47.61014 7.51810 884 ft 28 kts 154°
2026-05-06 16:43 47.60788 7.51969 890 ft 38 kts 155°
2026-05-06 16:44 47.60550 7.52134 890 ft 37 kts 155°
2026-05-06 16:44 47.60318 7.52292 894 ft 36 kts 155°
2026-05-06 16:44 47.60109 7.52438 898 ft 24 kts 154°
2026-05-06 16:44 47.59991 7.52521 898 ft 20 kts 154°
2026-05-06 16:45 47.59812 7.52646 898 ft 23 kts 154°
2026-05-06 16:45 47.59712 7.52717 898 ft 24 kts 154°
2026-05-06 16:45 47.59632 7.52799 898 ft 7 kts 120°
2026-05-06 16:45 47.59631 7.52881 898 ft 10 kts 71°
2026-05-06 16:46 47.59664 7.52990 898 ft 13 kts 64°
2026-05-06 16:46 47.59670 7.53006 898 ft 0 kts 64°
2026-05-06 16:46 47.59670 7.53008 898 ft 1 kts 64°
2026-05-06 16:46 47.59679 7.53030 898 ft 4 kts 52°
2026-05-06 16:47 47.59710 7.53069 898 ft 5 kts 18°
2026-05-06 16:47 47.59764 7.53067 898 ft 10 kts
2026-05-06 16:47 47.59794 7.53067 898 ft 4 kts
2026-05-06 16:47 47.59812 7.53074 898 ft 1 kts 17°
2026-05-06 16:48 47.59832 7.53086 898 ft 3 kts 28°
2026-05-06 16:48 47.59843 7.53096 898 ft 0 kts 31°
2026-05-06 16:48 47.59844 7.53097 898 ft 1 kts 31°
2026-05-06 16:48 47.59853 7.53105 898 ft 1 kts 31°
2026-05-06 16:49 47.59857 7.53109 898 ft 0 kts 32°